{"data":{"norad_id":61048,"intl_designator":"2024-163D","name":"SPACEMOBILE-002","alt_names":[],"object_type":"PAYLOAD","status":"ACTIVE","operator":null,"country":"US","launch_date":"2024-09-12","launch_site_code":"AFETR","launch_vehicle":null,"mission":null,"orbit_class":"UNKNOWN","rcs_meters":null,"size_class":null,"mass_kg":null,"dimensions":null,"purposes":[],"wikipedia_slug":null,"has_3d_model":false,"image_url":null,"decayed_at":null,"tle_current":{"epoch":"2026-09-22T07:47:47.322528Z","epoch_age_seconds":134096,"freshness":"FRESH","line1":"1 61048U 24163D   26265.32485327  .00012946  00000+0  59995-3 0  9991","line2":"2 61048  52.9755 222.5793 0007318  52.8355 307.3306 15.20406491112548","mean_motion":15.20406491,"eccentricity":0.0007318,"inclination_deg":52.9755,"raan_deg":222.5793,"arg_perigee_deg":52.8355,"mean_anomaly_deg":307.3306,"bstar":0.00059995,"rev_number":11254,"period_min":94.711513567196,"perigee_km":499.57677675052,"apogee_km":509.65037049008,"semimajor_km":6882.7505736203,"source":"CELESTRAK","updated_at":"2026-09-23T09:00:20.802512Z"}}}